| time (UTC) | temp F | wind direction | speed knots | gust knots | rain 1hr in | rain 24hr in | rain mn in | humidity % | barometer mb |
| 20260503010109 | 58 | 274 | 0.9 | 9.6 | 0.00 | 0.00 | 0.00 | 45 | 1018.4 |
| 20260503005559 | 58 | 59 | 3.5 | 9.6 | 0.00 | 0.00 | 0.00 | 44 | 1018.4 |
| 20260503005057 | 59 | 296 | 2.6 | 7.8 | 0.00 | 0.00 | 0.00 | 44 | 1018.4 |
| 20260503004600 | 58 | 266 | 2.6 | 7.8 | 0.00 | 0.00 | 0.00 | 46 | 1018.5 |
| 20260503004057 | 57 | 234 | 1.7 | 8.7 | 0.00 | 0.00 | 0.00 | 45 | 1018.7 |
| 20260503003557 | 57 | 191 | 2.6 | 8.7 | 0.00 | 0.00 | 0.00 | 45 | 1018.8 |
| 20260503003113 | 57 | 106 | 2.6 | 10.4 | 0.00 | 0.00 | 0.00 | 42 | 1018.9 |
| 20260503002557 | 58 | 322 | 2.6 | 10.4 | 0.00 | 0.00 | 0.00 | 42 | 1019.2 |
| 20260503002057 | 58 | 195 | 3.5 | 13.9 | 0.00 | 0.00 | 0.00 | 40 | 1018.9 |
| 20260503001555 | 59 | 139 | 1.7 | 13.9 | 0.00 | 0.00 | 0.00 | 39 | 1019.0 |
| 20260503001101 | 59 | 264 | 2.6 | 7.8 | 0.00 | 0.00 | 0.00 | 38 | 1019.2 |
| 20260503000557 | 60 | 220 | 0.9 | 2.6 | 0.00 | 0.00 | 0.00 | 40 | 1018.9 |
| 20260503000058 | 60 | 243 | 0.0 | 1.7 | 0.00 | 0.00 | 0.00 | 41 | 1018.9 |
| 20260502235557 | 60 | 0 | 0.0 | 1.7 | 0.00 | 0.00 | 0.00 | 41 | 1018.8 |
| 20260502235057 | 60 | 0 | 0.0 | 5.2 | 0.00 | 0.00 | 0.00 | 41 | 1018.9 |
| 20260502234556 | 60 | 0 | 0.0 | 5.2 | 0.00 | 0.00 | 0.00 | 40 | 1018.9 |
| 20260502234100 | 60 | 172 | 0.9 | 4.3 | 0.00 | 0.00 | 0.00 | 39 | 1018.9 |
| 20260502233557 | 60 | 252 | 0.0 | 2.6 | 0.00 | 0.00 | 0.00 | 38 | 1018.9 |
| 20260502233103 | 60 | 276 | 0.0 | 3.5 | 0.00 | 0.00 | 0.00 | 39 | 1018.9 |
| 20260502232557 | 60 | 0 | 0.9 | 6.1 | 0.00 | 0.00 | 0.00 | 39 | 1019.1 |
| 20260502232058 | 59 | 163 | 0.0 | 6.1 | 0.00 | 0.00 | 0.00 | 40 | 1019.2 |
| 20260502231606 | 59 | 183 | 1.7 | 6.1 | 0.00 | 0.00 | 0.00 | 40 | 1019.3 |
| 20260502231058 | 59 | 184 | 0.0 | 15.6 | 0.00 | 0.00 | 0.00 | 36 | 1019.4 |
| 20260502230559 | 59 | 257 | 4.3 | 15.6 | 0.00 | 0.00 | 0.00 | 35 | 1019.5 |
| 20260502230055 | 59 | 133 | 10.4 | 21.7 | 0.00 | 0.00 | 0.00 | 36 | 1019.7 |
| 20260502225557 | 61 | 166 | 9.6 | 21.7 | 0.00 | 0.00 | 0.00 | 35 | 1019.7 |
| 20260502225057 | 62 | 272 | 5.2 | 11.3 | 0.00 | 0.00 | 0.00 | 34 | 1019.4 |
| 20260502224557 | 62 | 237 | 0.0 | 5.2 | 0.00 | 0.00 | 0.00 | 35 | 1019.5 |
| 20260502224057 | 62 | 280 | 0.0 | 5.2 | 0.00 | 0.00 | 0.00 | 35 | 1019.7 |
| 20260502223559 | 63 | 176 | 0.9 | 2.6 | 0.00 | 0.00 | 0.00 | 34 | 1019.7 |
| 20260502223055 | 63 | 0 | 0.0 | 2.6 | 0.00 | 0.00 | 0.00 | 32 | 1019.8 |
| 20260502222559 | 63 | 0 | 0.0 | 2.6 | 0.00 | 0.00 | 0.00 | 32 | 1019.9 |
| 20260502222057 | 63 | 0 | 0.0 | 3.5 | 0.00 | 0.00 | 0.00 | 31 | 1019.8 |
| 20260502221555 | 63 | 301 | 0.9 | 3.5 | 0.00 | 0.00 | 0.00 | 34 | 1019.9 |
| 20260502221057 | 63 | 264 | 0.0 | 5.2 | 0.00 | 0.00 | 0.00 | 33 | 1019.8 |
| 20260502220557 | 63 | 192 | 1.7 | 5.2 | 0.00 | 0.00 | 0.00 | 31 | 1020.0 |
| 20260502220055 | 63 | 167 | 0.0 | 7.8 | 0.00 | 0.00 | 0.00 | 30 | 1020.2 |
| 20260502215556 | 62 | 265 | 4.3 | 7.8 | 0.00 | 0.00 | 0.00 | 28 | 1020.2 |
| 20260502215058 | 62 | 155 | 2.6 | 13.9 | 0.00 | 0.00 | 0.00 | 28 | 1020.2 |
| 20260502214559 | 62 | 149 | 6.1 | 13.9 | 0.00 | 0.00 | 0.00 | 28 | 1020.2 |
| 20260502214057 | 62 | 149 | 3.5 | 12.2 | 0.00 | 0.00 | 0.00 | 28 | 1020.1 |
| 20260502213557 | 62 | 134 | 4.3 | 12.2 | 0.00 | 0.00 | 0.00 | 28 | 1020.2 |
| 20260502213054 | 62 | 157 | 6.1 | 12.2 | 0.00 | 0.00 | 0.00 | 28 | 1020.2 |
| 20260502212557 | 62 | 116 | 4.3 | 10.4 | 0.00 | 0.00 | 0.00 | 27 | 1020.2 |
| 20260502212057 | 62 | 107 | 3.5 | 13.9 | 0.00 | 0.00 | 0.00 | 28 | 1020.2 |
| 20260502211556 | 62 | 146 | 6.1 | 15.6 | 0.00 | 0.00 | 0.00 | 27 | 1020.3 |
| 20260502211057 | 62 | 125 | 7.8 | 15.6 | 0.00 | 0.00 | 0.00 | 28 | 1020.3 |
| 20260502210557 | 62 | 59 | 6.1 | 15.6 | 0.00 | 0.00 | 0.00 | 28 | 1020.2 |
| 20260502210057 | 62 | 161 | 5.2 | 10.4 | 0.00 | 0.00 | 0.00 | 28 | 1020.4 |
| 20260502205600 | 62 | 134 | 3.5 | 11.3 | 0.00 | 0.00 | 0.00 | 29 | 1020.4 |
| 20260502205059 | 62 | 65 | 6.1 | 15.6 | 0.00 | 0.00 | 0.00 | 28 | 1020.4 |
| 20260502204610 | 62 | 150 | 7.0 | 15.6 | 0.00 | 0.00 | 0.00 | 28 | 1020.3 |
| 20260502204057 | 62 | 166 | 7.0 | 13.9 | 0.00 | 0.00 | 0.00 | 28 | 1020.4 |
| 20260502203558 | 62 | 52 | 5.2 | 13.9 | 0.00 | 0.00 | 0.00 | 28 | 1020.5 |
| 20260502203115 | 63 | 135 | 7.0 | 13.9 | 0.00 | 0.00 | 0.00 | 27 | 1020.6 |
| 20260502202559 | 63 | 129 | 4.3 | 12.2 | 0.00 | 0.00 | 0.00 | 28 | 1020.6 |
| 20260502202057 | 63 | 100 | 3.5 | 12.2 | 0.00 | 0.00 | 0.00 | 28 | 1020.4 |
| 20260502201557 | 63 | 150 | 5.2 | 12.2 | 0.00 | 0.00 | 0.00 | 28 | 1020.6 |
| 20260502201059 | 61 | 107 | 7.8 | 13.0 | 0.00 | 0.00 | 0.00 | 28 | 1020.5 |
| 20260502200558 | 62 | 131 | 4.3 | 13.0 | 0.00 | 0.00 | 0.00 | 28 | 1020.6 |
| 20260502200059 | 62 | 97 | 6.1 | 13.0 | 0.00 | 0.00 | 0.00 | 28 | 1020.6 |
| 20260502195557 | 62 | 69 | 7.0 | 16.5 | 0.00 | 0.00 | 0.00 | 28 | 1020.6 |
| 20260502195057 | 62 | 175 | 7.0 | 16.5 | 0.00 | 0.00 | 0.00 | 28 | 1020.9 |
| 20260502194559 | 62 | 48 | 7.0 | 15.6 | 0.00 | 0.00 | 0.00 | 28 | 1020.9 |
| 20260502194057 | 63 | 49 | 6.1 | 13.0 | 0.00 | 0.00 | 0.00 | 28 | 1020.8 |
| 20260502193557 | 63 | 140 | 7.8 | 13.0 | 0.00 | 0.00 | 0.00 | 28 | 1020.9 |
| 20260502193057 | 62 | 125 | 4.3 | 15.6 | 0.00 | 0.00 | 0.00 | 29 | 1020.9 |
| 20260502192557 | 61 | 86 | 6.1 | 15.6 | 0.00 | 0.00 | 0.00 | 29 | 1021.0 |
| 20260502192056 | 61 | 139 | 7.0 | 17.4 | 0.00 | 0.00 | 0.00 | 29 | 1021.0 |
| 20260502191559 | 61 | 89 | 7.8 | 17.4 | 0.00 | 0.00 | 0.00 | 29 | 1021.3 |
| 20260502191057 | 62 | 171 | 7.0 | 16.5 | 0.00 | 0.00 | 0.00 | 29 | 1021.3 |
| 20260502190557 | 62 | 123 | 8.7 | 16.5 | 0.00 | 0.00 | 0.00 | 30 | 1021.3 |
| 20260502190105 | 62 | 124 | 7.8 | 16.5 | 0.00 | 0.00 | 0.00 | 28 | 1021.3 |
| 20260502185557 | 62 | 51 | 6.1 | 13.9 | 0.00 | 0.00 | 0.00 | 29 | 1021.3 |
| 20260502185057 | 61 | 70 | 7.0 | 14.8 | 0.00 | 0.00 | 0.00 | 29 | 1021.3 |
| 20260502184605 | 61 | 125 | 6.1 | 14.8 | 0.00 | 0.00 | 0.00 | 30 | 1021.5 |
| 20260502184059 | 61 | 186 | 6.1 | 14.8 | 0.00 | 0.00 | 0.00 | 29 | 1021.4 |
| 20260502183558 | 61 | 146 | 5.2 | 13.0 | 0.00 | 0.00 | 0.00 | 30 | 1021.7 |
| 20260502183107 | 61 | 139 | 5.2 | 13.9 | 0.00 | 0.00 | 0.00 | 30 | 1021.6 |
| 20260502182558 | 60 | 84 | 7.0 | 13.9 | 0.00 | 0.00 | 0.00 | 30 | 1021.6 |
| 20260502182057 | 61 | 105 | 6.1 | 13.9 | 0.00 | 0.00 | 0.00 | 29 | 1021.7 |
| 20260502181616 | 61 | 21 | 7.0 | 13.9 | 0.00 | 0.00 | 0.00 | 30 | 1021.6 |
| 20260502181101 | 60 | 98 | 7.0 | 13.9 | 0.00 | 0.00 | 0.00 | 31 | 1021.7 |
| 20260502180557 | 60 | 108 | 6.1 | 13.9 | 0.00 | 0.00 | 0.00 | 30 | 1021.7 |
| 20260502170110 | 57 | 51 | 7.0 | 13.9 | 0.00 | 0.00 | 0.00 | 30 | 1022.2 |
| 20260502164057 | 57 | 40 | 7.0 | 13.0 | 0.00 | 0.00 | 0.00 | 31 | 1022.0 |
| 20260502163558 | 57 | 117 | 5.2 | 12.2 | 0.00 | 0.00 | 0.00 | 32 | 1022.1 |
| 20260502163104 | 57 | 48 | 5.2 | 12.2 | 0.00 | 0.00 | 0.00 | 30 | 1022.2 |
| 20260502162558 | 57 | 118 | 3.5 | 8.7 | 0.00 | 0.00 | 0.00 | 33 | 1022.0 |
| 20260502162057 | 56 | 105 | 3.5 | 7.0 | 0.00 | 0.00 | 0.00 | 37 | 1022.2 |
| 20260502161600 | 56 | 49 | 0.9 | 3.5 | 0.00 | 0.00 | 0.00 | 53 | 1022.0 |
| 20260502161057 | 56 | 111 | 0.0 | 4.3 | 0.00 | 0.00 | 0.00 | 53 | 1022.2 |
| 20260502160558 | 54 | 0 | 1.7 | 4.3 | 0.00 | 0.00 | 0.00 | 59 | 1022.1 |
| 20260502152057 | 48 | 0 | 0.0 | 0.9 | 0.00 | 0.00 | 0.00 | 72 | 1022.5 |
| 20260502151607 | 47 | 0 | 0.0 | 0.9 | 0.00 | 0.00 | 0.00 | 74 | 1022.6 |
| 20260502151100 | 46 | 58 | 0.0 | 0.0 | 0.00 | 0.00 | 0.00 | 75 | 1022.6 |
| 20260502150557 | 45 | 0 | 0.0 | 0.0 | 0.00 | 0.00 | 0.00 | 76 | 1022.5 |
| 20260502140105 | 40 | 0 | 0.0 | 0.0 | 0.00 | 0.00 | 0.00 | 80 | 1022.3 |
| 20260502130557 | 37 | 0 | 0.0 | 0.0 | 0.00 | 0.00 | 0.00 | 82 | 1022.0 |
| 20260502123558 | 38 | 0 | 0.0 | 0.9 | 0.00 | 0.00 | 0.00 | 77 | 1021.8 |
| 20260502123057 | 38 | 169 | 0.0 | 0.9 | 0.00 | 0.00 | 0.00 | 78 | 1021.8 |
| 20260502122558 | 38 | 0 | 0.0 | 0.9 | 0.00 | 0.00 | 0.00 | 77 | 1021.8 |
| 20260502122059 | 38 | 0 | 0.0 | 0.9 | 0.00 | 0.00 | 0.00 | 76 | 1021.7 |
| 20260502121559 | 38 | 0 | 0.0 | 1.7 | 0.00 | 0.00 | 0.00 | 78 | 1021.9 |
| 20260502121059 | 38 | 181 | 0.9 | 1.7 | 0.00 | 0.00 | 0.00 | 75 | 1021.8 |
| 20260502120601 | 38 | 0 | 0.0 | 1.7 | 0.00 | 0.00 | 0.00 | 75 | 1021.7 |
| 20260502120106 | 39 | 0 | 0.0 | 0.0 | 0.00 | 0.00 | 0.00 | 75 | 1021.8 |
| 20260502115558 | 39 | 0 | 0.0 | 0.0 | 0.00 | 0.00 | 0.00 | 76 | 1021.7 |
| 20260502115058 | 39 | 0 | 0.0 | 0.0 | 0.00 | 0.00 | 0.00 | 79 | 1021.8 |
| 20260502114559 | 39 | 0 | 0.0 | 0.0 | 0.00 | 0.00 | 0.00 | 78 | 1021.8 |
| 20260502114058 | 39 | 0 | 0.0 | 0.9 | 0.00 | 0.00 | 0.00 | 78 | 1021.7 |
| 20260502113558 | 38 | 0 | 0.0 | 1.7 | 0.00 | 0.00 | 0.00 | 76 | 1021.8 |
| 20260502113100 | 39 | 0 | 0.0 | 1.7 | 0.00 | 0.00 | 0.00 | 73 | 1021.9 |
| 20260502112600 | 40 | 242 | 0.0 | 1.7 | 0.00 | 0.00 | 0.00 | 73 | 1021.8 |
| 20260502112057 | 40 | 0 | 0.0 | 0.0 | 0.00 | 0.00 | 0.00 | 77 | 1021.8 |
| 20260502111558 | 40 | 0 | 0.0 | 0.0 | 0.00 | 0.00 | 0.00 | 73 | 1021.9 |
| 20260502111057 | 40 | 0 | 0.0 | 0.9 | 0.00 | 0.00 | 0.00 | 72 | 1022.0 |
| 20260502110601 | 41 | 0 | 0.0 | 1.7 | 0.00 | 0.00 | 0.00 | 75 | 1021.9 |
| 20260502105558 | 40 | 175 | 0.9 | 2.6 | 0.00 | 0.00 | 0.00 | 71 | 1021.9 |
| 20260502105058 | 41 | 0 | 0.0 | 0.9 | 0.00 | 0.00 | 0.00 | 73 | 1022.0 |
| 20260502104557 | 41 | 231 | 0.0 | 0.9 | 0.00 | 0.00 | 0.00 | 78 | 1021.8 |
| 20260502104058 | 41 | 0 | 0.0 | 0.0 | 0.00 | 0.00 | 0.00 | 75 | 1021.9 |
| 20260502103558 | 41 | 0 | 0.0 | 0.0 | 0.00 | 0.00 | 0.00 | 75 | 1022.0 |
| 20260502103101 | 41 | 0 | 0.0 | 0.0 | 0.00 | 0.00 | 0.00 | 72 | 1021.8 |
| 20260502102559 | 41 | 0 | 0.0 | 1.7 | 0.00 | 0.00 | 0.00 | 72 | 1021.9 |
| 20260502102059 | 41 | 174 | 0.0 | 1.7 | 0.00 | 0.00 | 0.00 | 71 | 1021.8 |
| 20260502101558 | 41 | 175 | 0.0 | 1.7 | 0.00 | 0.00 | 0.00 | 72 | 1021.8 |
| 20260502101059 | 41 | 169 | 0.9 | 1.7 | 0.00 | 0.00 | 0.00 | 69 | 1021.7 |
| 20260502100557 | 41 | 0 | 0.0 | 1.7 | 0.00 | 0.00 | 0.00 | 70 | 1021.7 |
| 20260502091059 | 44 | 0 | 0.0 | 1.7 | 0.00 | 0.00 | 0.00 | 66 | 1021.9 |
| 20260502090601 | 43 | 0 | 0.0 | 1.7 | 0.00 | 0.00 | 0.00 | 67 | 1021.8 |
| 20260502080108 | 48 | 0 | 0.0 | 0.9 | 0.00 | 0.00 | 0.00 | 61 | 1022.2 |
| 20260502071057 | 49 | 0 | 0.0 | 0.0 | 0.00 | 0.00 | 0.00 | 57 | 1022.4 |
| 20260502070559 | 49 | 0 | 0.0 | 0.0 | 0.00 | 0.00 | 0.00 | 58 | 1022.5 |
| 20260502070101 | 49 | 0 | 0.0 | 0.9 | 0.00 | 0.00 | 0.00 | 57 | 1022.4 |
| 20260502065558 | 49 | 0 | 0.0 | 0.9 | 0.00 | 0.00 | 0.00 | 57 | 1022.4 |
| 20260502065101 | 49 | 0 | 0.0 | 0.9 | 0.00 | 0.00 | 0.00 | 56 | 1022.4 |
| 20260502064603 | 50 | 0 | 0.0 | 0.9 | 0.00 | 0.00 | 0.00 | 54 | 1022.5 |
| 20260502064058 | 50 | 0 | 0.0 | 0.9 | 0.00 | 0.00 | 0.00 | 51 | 1022.5 |
| 20260502063558 | 50 | 0 | 0.0 | 0.0 | 0.00 | 0.00 | 0.00 | 50 | 1022.4 |
| 20260502063059 | 51 | 0 | 0.0 | 0.0 | 0.00 | 0.00 | 0.00 | 50 | 1022.4 |
| 20260502062559 | 51 | 0 | 0.0 | 0.9 | 0.00 | 0.00 | 0.00 | 51 | 1022.3 |
| 20260502062058 | 52 | 0 | 0.0 | 0.9 | 0.00 | 0.00 | 0.00 | 52 | 1022.4 |
| 20260502061558 | 52 | 0 | 0.0 | 0.9 | 0.00 | 0.00 | 0.00 | 52 | 1022.2 |
| 20260502061058 | 52 | 0 | 0.0 | 0.9 | 0.00 | 0.00 | 0.00 | 51 | 1022.1 |
| 20260502060558 | 52 | 0 | 0.0 | 2.6 | 0.00 | 0.00 | 0.00 | 51 | 1022.2 |
| 20260502060058 | 53 | 0 | 0.0 | 3.5 | 0.00 | 0.00 | 0.00 | 50 | 1022.2 |
| 20260502055558 | 52 | 65 | 1.7 | 6.1 | 0.00 | 0.00 | 0.00 | 49 | 1022.1 |
| 20260502055058 | 52 | 80 | 2.6 | 6.1 | 0.00 | 0.00 | 0.00 | 51 | 1022.2 |
| 20260502054559 | 52 | 39 | 2.6 | 5.2 | 0.00 | 0.00 | 0.00 | 51 | 1022.3 |
| 20260502054102 | 52 | 0 | 0.0 | 0.9 | 0.00 | 0.00 | 0.00 | 51 | 1022.3 |
| 20260502053559 | 53 | 4 | 0.0 | 1.7 | 0.00 | 0.00 | 0.00 | 51 | 1022.3 |
| 20260502053056 | 53 | 0 | 0.0 | 1.7 | 0.00 | 0.00 | 0.00 | 48 | 1022.3 |
| 20260502052600 | 53 | 0 | 0.0 | 1.7 | 0.00 | 0.00 | 0.00 | 49 | 1022.5 |
| 20260502052058 | 52 | 340 | 0.0 | 1.7 | 0.00 | 0.00 | 0.00 | 49 | 1022.3 |
| 20260502051556 | 51 | 0 | 0.0 | 0.9 | 0.00 | 0.00 | 0.00 | 47 | 1022.3 |
| 20260502051058 | 52 | 0 | 0.0 | 0.9 | 0.00 | 0.00 | 0.00 | 44 | 1022.2 |
| 20260502050559 | 52 | 0 | 0.0 | 0.9 | 0.00 | 0.00 | 0.00 | 42 | 1022.3 |
| 20260502050057 | 52 | 0 | 0.0 | 0.9 | 0.00 | 0.00 | 0.00 | 41 | 1022.3 |
| 20260502045558 | 52 | 0 | 0.0 | 0.9 | 0.00 | 0.00 | 0.00 | 41 | 1022.2 |
| 20260502045058 | 51 | 0 | 0.0 | 0.9 | 0.00 | 0.00 | 0.00 | 40 | 1022.2 |
| 20260502044600 | 51 | 0 | 0.0 | 0.9 | 0.00 | 0.00 | 0.00 | 39 | 1022.2 |
| 20260502044100 | 51 | 0 | 0.0 | 0.9 | 0.00 | 0.00 | 0.00 | 39 | 1022.1 |
| 20260502043558 | 51 | 0 | 0.0 | 0.9 | 0.00 | 0.00 | 0.00 | 39 | 1022.0 |
| 20260502043102 | 51 | 0 | 0.0 | 3.5 | 0.00 | 0.00 | 0.00 | 36 | 1021.9 |
| 20260502042558 | 51 | 0 | 0.0 | 3.5 | 0.00 | 0.00 | 0.00 | 37 | 1021.7 |
| 20260502042058 | 51 | 236 | 0.9 | 2.6 | 0.00 | 0.00 | 0.00 | 36 | 1021.7 |
| 20260502041556 | 51 | 222 | 0.0 | 0.9 | 0.00 | 0.00 | 0.00 | 35 | 1021.5 |
| 20260502041058 | 52 | 255 | 0.0 | 0.9 | 0.00 | 0.00 | 0.00 | 34 | 1021.4 |
| 20260502040557 | 53 | 0 | 0.0 | 0.9 | 0.00 | 0.00 | 0.00 | 32 | 1021.3 |
| 20260502040107 | 54 | 0 | 0.0 | 2.6 | 0.00 | 0.00 | 0.00 | 31 | 1021.1 |
| 20260502035558 | 55 | 0 | 0.0 | 7.8 | 0.00 | 0.00 | 0.00 | 29 | 1021.1 |
| 20260502035103 | 55 | 181 | 1.7 | 7.8 | 0.00 | 0.00 | 0.00 | 27 | 1020.9 |
| 20260502034558 | 55 | 148 | 3.5 | 7.8 | 0.00 | 0.00 | 0.00 | 28 | 1021.0 |
| 20260502034059 | 53 | 82 | 0.0 | 1.7 | 0.00 | 0.00 | 0.00 | 29 | 1020.9 |
| 20260502033558 | 54 | 0 | 0.0 | 0.9 | 0.00 | 0.00 | 0.00 | 31 | 1020.9 |
| 20260502033057 | 54 | 0 | 0.0 | 0.9 | 0.00 | 0.00 | 0.00 | 31 | 1020.8 |
| 20260502032559 | 55 | 0 | 0.0 | 3.5 | 0.00 | 0.00 | 0.00 | 29 | 1020.6 |
| 20260502032058 | 56 | 178 | 0.0 | 7.0 | 0.00 | 0.00 | 0.00 | 28 | 1020.7 |
| 20260502031619 | 57 | 52 | 2.6 | 7.0 | 0.00 | 0.00 | 0.00 | 26 | 1020.7 |
| 20260502031058 | 57 | 62 | 1.7 | 7.0 | 0.00 | 0.00 | 0.00 | 26 | 1020.6 |
| 20260502030558 | 57 | 46 | 0.9 | 5.2 | 0.00 | 0.00 | 0.00 | 27 | 1020.4 |
| 20260502030100 | 58 | 0 | 0.9 | 5.2 | 0.00 | 0.00 | 0.00 | 26 | 1020.4 |
| 20260502025557 | 58 | 52 | 1.7 | 4.3 | 0.00 | 0.00 | 0.00 | 26 | 1020.4 |
| 20260502025058 | 58 | 90 | 0.9 | 5.2 | 0.00 | 0.00 | 0.00 | 26 | 1020.4 |
| 20260502024556 | 58 | 53 | 0.9 | 6.1 | 0.00 | 0.00 | 0.00 | 25 | 1020.3 |
| 20260502024058 | 58 | 108 | 1.7 | 6.1 | 0.00 | 0.00 | 0.00 | 25 | 1020.3 |
| 20260502023558 | 59 | 91 | 1.7 | 6.1 | 0.00 | 0.00 | 0.00 | 24 | 1020.3 |
| 20260502023059 | 59 | 65 | 2.6 | 6.1 | 0.00 | 0.00 | 0.00 | 24 | 1020.3 |
| 20260502022558 | 59 | 77 | 0.9 | 6.1 | 0.00 | 0.00 | 0.00 | 24 | 1020.3 |
| 20260502022100 | 59 | 115 | 1.7 | 5.2 | 0.00 | 0.00 | 0.00 | 24 | 1020.2 |
| 20260502021559 | 59 | 133 | 0.9 | 7.8 | 0.00 | 0.00 | 0.00 | 23 | 1020.2 |
| 20260502021058 | 60 | 57 | 1.7 | 9.6 | 0.00 | 0.00 | 0.00 | 23 | 1020.2 |
| 20260502020558 | 60 | 108 | 3.5 | 9.6 | 0.00 | 0.00 | 0.00 | 23 | 1020.2 |
| 20260502020111 | 60 | 27 | 1.7 | 8.7 | 0.00 | 0.00 | 0.00 | 23 | 1020.2 |
| 20260502015602 | 60 | 124 | 1.7 | 8.7 | 0.00 | 0.00 | 0.00 | 23 | 1020.2 |
| 20260502015058 | 60 | 76 | 4.3 | 8.7 | 0.00 | 0.00 | 0.00 | 22 | 1020.2 |
| 20260502014559 | 60 | 97 | 4.3 | 7.8 | 0.00 | 0.00 | 0.00 | 22 | 1020.1 |
| 20260502014058 | 61 | 94 | 3.5 | 7.8 | 0.00 | 0.00 | 0.00 | 22 | 1020.2 |
| 20260502013559 | 61 | 166 | 1.7 | 11.3 | 0.00 | 0.00 | 0.00 | 22 | 1020.2 |
| 20260502013106 | 61 | 47 | 3.5 | 11.3 | 0.00 | 0.00 | 0.00 | 21 | 1020.2 |
| 20260502012558 | 61 | 149 | 3.5 | 10.4 | 0.00 | 0.00 | 0.00 | 22 | 1020.1 |
| 20260502012058 | 62 | 132 | 2.6 | 8.7 | 0.00 | 0.00 | 0.00 | 21 | 1020.2 |
| 20260502011559 | 62 | 104 | 3.5 | 8.7 | 0.00 | 0.00 | 0.00 | 21 | 1020.2 |
| 20260502011059 | 62 | 139 | 4.3 | 8.7 | 0.00 | 0.00 | 0.00 | 21 | 1020.2 |
| 20260502010558 | 62 | 132 | 2.6 | 10.4 | 0.00 | 0.00 | 0.00 | 21 | 1020.2 |